SCP
0 0 0 -0 -0 -0 0 0 0 0 0 0 0 0 0 0 0 0 0 0 0 0 0 0 0 0 0 0 0 0 0 0 0 0 0 0 0 0 0 0 0 0 0
0 0 0 0 -0 -0 0 0 0 0 0 0 0 0 0 0 0 0 0 0 0 0 0 0 0 0 0 0 0 0 0 0 0 0 0 0 0 0 0 0 0 0 0
0 0 0 0 -0 -0 -0 0 0 0 0 0 0 0 0 0 0 0 0 0 0 0 0 0 0 0 0 0 0 0 0 0 0 0 0 0 0 0 0 0 0 0 0
0 0 0 0 -0 -0 0 0 0 0 0 0 0 0 0 0 0 0 0 0 0 0 0 0 0 0 0 0 0 0 0 0 0 0 0 0 0 0 0 0 0 0 0
0 0 0 0 0 0 0 0 0 0 0 0 0 0 0 0 0 0 0 0 0 0 0 0 0 0 0 0 0 0 0 0 0 0 0 0 0 0 0 0 0 0 0
0 0 0 0 0 0 0 0 0 0 0 0 0 0 0 0 0 0 0 0 0 0 0 0 0 0 0 0 0 0 0 0 0 0 0 0 0 0 0 0 0 0 0
0 0 0 0 0 0 0 0 0 0 0 0 0 0 0 0 0 0 0 0 0 0 0 0 0 0 0 0 0 0 0 0 0 0 0 0 0 0 0 0 0 0 0
0 0 0 0 0 0 0 0 0 0 0 0 0 0 0 0 0 0 0 0 0 0 0 0 0 0 0 0 0 0 0 0 0 0 0 0 0 0 0 0 0 0 0
0 0 0 0 0 0 0 0 0 0 0 0 0 0 0 0 0 0 0 0 0 0 0 0 0 0 0 0 0 0 0 0 0 0 0 0 0 0 0 0 0 0 0
0 0 0 0 0 0 0 0 0 0 0 0 0 0 0 0 0 0 0 0 0 0 0 0 0 0 0 0 0 0 0 0 0 0 0 0 0 0 0 0 0 0 0
0 0 0 0 0 0 0 0 0 0 0 0 0 0 0 0 0 0 0 0 0 0 0 0 0 0 0 0 0 0 0 0 0 0 0 0 0 0 0 0 0 0 0
0 0 0 0 0 0 0 0 0 0 0 0 0 0 0 0 0 0 0 0 0 0 0 0 0 0 0 0 0 0 0 0 0 0 0 0 0 0 0 0 0 0 0
0 0 0 0 0 0 0 0 0 0 0 0 0 0 0 0 0 0 0 0 0 0 0 0 0 0 0 0 0 0 0 0 0 0 0 0 0 0 0 0 0 0 0
0 0 0 0 0 0 0 0 0 0 0 0 0 0 0 0 0 0 0 0 0 0 0 0 0 0 0 0 0 0 0 0 0 0 0 0 0 0 0 0 0 0 0
0 0 0 0 0 0 0 0 0 0 0 0 0 0 0 0 0 0 0 0 0 0 0 0 0 0 0 0 0 0 0 0 0 0 0 0 0 0 0 0 0 0 0
0 0 0 0 0 0 0 0 0 0 0 0 0 0 0 0 0 0 0 0 0 0 0 0 0 0 0 0 0 0 0 0 0 0 0 0 0 0 0 0 0 0 0
0 0 0 0 0 0 0 0 0 0 0 0 0 0 0 0 0 0 0 0 0 0 0 0 0 0 0 0 0 0 0 0 0 0 0 0 0 0 0 0 0 0 0
0 0 0 1 1 1 1 1 1 0 0 0 0 0 0 0 0 0 0 0 0 0 0 0 0 0 0 0 0 0 0 0 0 0 0 0 0 0 0 0 0 0 0
0 0 0 0 1 1 1 1 1 1 1 1 1 0 0 0 0 0 0 0 0 0 0 0 0 0 0 0 0 0 0 0 0 0 0 0 0 0 0 0 0 0 0
0 0 0 0 0 1 1 1 1 1 1 1 1 1 1 0 0 0 0 0 0 0 0 0 0 0 0 0 0 0 0 0 0 0 0 0 0 0 0 0 0 0 0
0 0 0 0 0 0 1 1 1 1 1 1 1 1 1 1 0 0 0 0 0 0 0 0 0 0 0 0 0 0 0 0 0 0 0 0 0 0 0 0 0 0 0
0 0 0 0 0 0 0 1 1 1 1 1 1 1 1 1 1 1 1 0 0 0 0 0 0 0 0 0 0 0 0 0 0 0 0 0 0 0 0 0 0 0 0
0 0 0 0 0 0 0 0 1 1 1 1 1 1 1 1 1 1 1 1 1 0 0 0 0 0 0 0 0 0 0 0 0 0 0 0 0 0 0 0 0 0 0
0 0 0 0 0 0 0 0 0 1 1 1 1 1 1 1 1 1 1 1 1 0 0 0 0 0 0 0 0 0 0 0 0 0 0 0 0 0 0 0 0 0 0
0 0 0 0 0 0 0 0 0 0 0 1 1 1 1 1 1 1 1 1 1 1 0 0 0 0 0 0 0 0 0 0 0 0 0 0 0 0 0 0 0 0 0
0 0 0 0 0 0 0 0 0 0 0 0 1 1 1 1 1 1 1 1 1 1 0 0 0 0 0 0 0 0 0 0 0 0 0 0 0 0 0 0 0 0 0
Wind_Speed
10 14 15 15 15 15 15 15 15 15 14 13 13 12 10 9 7 6 6 6 6 7 10 12 13 13 13 12 12 12 12 12 12 12 11 10 9 9 9 7 4 8 8
14 16 15 14 15 15 14 15 14 14 13 13 12 11 9 8 7 6 6 7 7 9 11 13 13 13 12 12 12 11 11 11 11 10 7 8 8 8 8 6 6 7 6
15 16 16 13 13 14 14 15 15 14 13 12 11 10 9 8 7 6 7 7 8 10 12 13 13 12 12 12 11 11 10 10 10 7 2 6 8 7 6 5 4 5 5
15 15 15 14 13 14 15 15 15 14 13 12 11 10 9 8 7 7 7 8 10 11 12 12 12 12 12 11 10 10 9 9 7 2 4 6 6 7 5 4 4 4 4
14 13 14 13 13 14 15 15 15 14 13 12 11 10 9 8 8 9 10 10 11 11 12 12 12 11 11 10 9 9 8 8 4 2 6 5 6 6 4 5 5 5 6
14 13 15 12 13 13 14 14 14 14 13 12 11 10 8 8 9 10 10 10 11 11 11 11 11 10 10 9 8 7 7 5 4 6 6 5 6 6 6 7 7 8 9
13 12 15 12 13 13 13 14 13 13 13 12 11 10 9 9 9 10 10 10 10 10 10 10 10 9 8 7 7 6 6 2 3 5 5 5 7 9 10 11 13 13 14
12 11 13 12 11 12 12 12 12 13 12 12 11 10 9 9 9 9 9 9 9 9 9 9 9 8 7 6 6 6 5 1 4 5 5 6 9 10 12 13 13 14 14
12 11 11 12 12 11 10 10 10 11 11 11 10 9 8 8 9 9 8 8 8 8 8 8 8 7 6 6 6 6 5 0 2 4 4 5 8 10 12 12 13 13 13
10 11 11 11 11 11 11 9 9 9 10 11 10 8 8 8 8 8 8 7 7 7 7 7 7 6 6 5 5 6 5 4 3 4 3 6 8 9 10 11 11 11 12
9 10 10 10 10 9 9 9 9 10 10 11 10 10 9 8 9 8 7 6 6 7 7 7 7 7 7 6 6 6 5 3 3 2 4 7 7 9 10 10 10 10 10
11 10 9 10 9 9 7 8 8 9 10 10 9 11 8 7 6 5 8 4 5 6 6 6 8 8 5 5 6 6 4 4 3 3 4 6 7 9 9 9 9 9 9
10 10 9 9 9 9 7 6 5 5 7 9 10 10 8 7 5 6 6 6 7 7 7 7 8 5 4 3 3 4 3 3 2 3 5 6 8 9 9 8 7 7 7
9 10 10 10 9 9 8 6 6 6 6 7 9 11 8 6 6 6 5 6 6 5 6 6 4 5 5 5 5 5 5 3 3 3 5 7 9 9 8 7 7 6 6
9 10 10 10 10 9 8 6 7 7 7 9 8 10 10 8 8 7 6 6 7 6 6 6 6 6 6 6 5 5 6 5 5 4 5 7 8 9 8 7 6 6 5
10 10 11 11 11 11 9 9 8 8 8 9 9 11 12 9 8 8 8 7 7 7 7 6 7 6 6 5 6 6 6 5 5 6 5 8 8 9 9 8 6 5 5
10 11 12 12 12 13 12 11 9 8 9 9 9 11 13 12 11 10 9 8 8 8 9 7 8 6 5 5 6 6 5 6 6 6 6 6 7 7 8 8 7 6 5
10 11 12 10 13 14 13 11 9 9 9 9 9 10 14 14 13 11 9 9 9 8 8 8 7 7 6 6 6 5 5 5 7 7 7 6 6 6 7 8 8 7 5
10 11 11 12 14 14 13 11 10 9 10 9 9 10 12 15 15 13 10 10 11 9 9 8 8 8 8 7 6 5 5 6 6 7 8 8 7 7 6 8 7 6 5
9 10 11 11 13 13 11 9 8 10 10 9 10 11 13 13 15 14 11 12 12 10 10 10 10 9 7 7 6 5 5 5 6 7 8 8 7 8 8 8 7 6 6
7 9 10 10 11 10 9 9 10 10 10 10 11 14 14 14 14 14 11 13 12 12 13 13 11 11 8 7 5 5 5 6 7 7 7 8 9 9 9 8 6 6 5
5 6 8 9 10 10 9 9 9 10 9 10 10 12 14 15 15 13 15 12 13 12 14 14 13 9 8 9 7 5 5 7 8 8 8 8 9 8 9 9 8 7 5
3 4 4 6 7 8 9 8 7 8 8 8 10 11 14 16 16 15 16 14 13 13 13 15 16 16 11 10 9 8 6 8 5 6 9 8 9 8 8 8 8 7 6
6 5 4 4 4 5 6 8 11 10 11 12 10 10 12 14 15 15 15 15 14 12 14 14 16 14 14 10 9 8 6 3 5 5 5 6 8 8 8 6 7 6 6
6 6 5 4 4 3 4 6 9 11 11 10 10 12 12 11 13 14 14 14 14 13 14 14 14 16 13 12 9 7 7 3 4 4 4 5 5 5 5 5 5 5 5
7 7 6 6 5 5 4 4 6 9 11 12 12 11 10 9 9 13 13 13 13 12 14 14 13 15 13 13 10 8 7 6 7 6 5 4 4 3 3 2 3 3 4
Wind_Direction
154 153 150 153 151 150 147 145 140 135 132 131 129 127 125 123 122 122 125 128 130 123 114 108 101 97 96 94 91 88 86 85 81 75 72 73 81 88 82 66 61 86 71
149 150 145 151 152 152 150 144 137 134 132 132 131 128 126 124 122 117 120 126 128 124 115 109 104 102 100 98 96 93 92 91 87 80 78 89 79 84 83 66 33 63 68
149 147 150 149 151 152 148 142 138 136 135 134 131 129 127 124 121 116 118 122 120 116 111 109 106 105 103 101 98 96 96 95 90 89 138 103 97 89 91 81 71 73 64
150 150 155 146 152 151 147 143 141 140 137 134 132 131 128 122 117 116 116 120 114 111 108 109 108 109 106 103 99 97 97 96 95 163 110 84 91 87 92 86 81 79 58
152 152 143 149 152 150 147 145 145 143 139 135 133 132 130 124 114 109 105 108 107 107 108 111 113 112 109 105 99 96 97 98 116 139 86 80 77 81 83 78 74 71 60
154 152 144 152 149 147 148 148 147 145 141 137 135 134 134 128 116 108 107 106 107 108 110 112 115 113 110 105 99 96 101 114 174 92 84 73 71 79 86 83 75 71 71
154 152 150 151 148 148 150 150 151 149 145 141 139 140 139 132 121 114 112 113 115 115 115 116 117 116 112 107 100 99 105 114 99 94 83 72 67 70 78 78 78 77 74
155 154 151 147 146 148 152 154 156 154 150 147 146 147 146 138 132 129 126 125 124 123 122 122 123 121 117 111 104 106 115 193 119 96 83 76 69 77 80 79 77 74 71
160 160 159 163 157 152 154 158 161 157 154 152 153 151 144 139 141 143 141 140 134 130 129 129 130 128 123 115 112 116 115 0 140 94 85 79 80 82 83 80 79 75 71
169 169 169 172 172 173 172 165 165 159 157 156 154 146 137 139 147 149 160 149 145 140 138 138 137 132 123 118 121 125 136 207 133 123 107 92 90 90 88 85 81 76 73
182 181 179 179 180 182 183 168 176 168 166 163 161 149 159 172 167 168 161 143 155 152 152 149 141 127 125 122 123 136 181 200 144 126 102 96 100 100 96 91 86 82 77
189 191 189 189 187 188 182 183 191 186 181 189 183 177 188 184 176 172 139 162 161 155 160 154 141 147 185 158 143 179 190 180 163 147 113 111 117 114 107 101 95 89 83
194 196 201 200 198 196 191 195 193 193 192 199 197 190 192 187 178 184 173 176 183 182 183 160 176 186 191 173 178 184 175 183 180 156 131 130 133 126 119 113 105 98 91
203 204 207 207 208 209 207 201 202 201 199 200 201 200 197 195 195 193 194 191 192 194 194 194 201 186 190 186 192 184 180 194 189 171 130 138 141 136 131 126 118 109 100
214 212 212 211 211 212 215 216 213 212 208 205 205 205 205 203 202 200 203 200 205 203 199 205 206 195 197 193 194 197 193 194 190 180 145 143 143 144 144 141 134 125 113
221 218 214 214 213 213 214 218 220 218 214 217 209 210 211 212 209 205 209 207 209 208 209 209 211 204 202 199 197 200 201 196 198 192 169 148 143 148 154 153 145 134 123
230 225 219 216 214 215 218 221 226 223 219 217 215 215 213 215 214 211 214 211 210 209 209 212 210 210 204 199 202 201 202 204 200 195 186 172 160 153 162 163 154 145 131
240 233 227 218 219 219 219 219 222 226 224 223 219 217 217 217 216 215 217 215 211 207 206 205 203 204 203 205 204 196 200 200 206 200 191 188 180 172 168 166 163 156 146
244 240 235 227 226 224 221 220 222 226 227 228 224 221 219 218 216 216 219 217 211 208 208 204 206 208 207 205 205 198 202 202 202 202 203 195 190 188 179 158 157 154 157
251 247 241 236 233 232 225 221 220 225 229 228 229 227 224 220 218 218 219 219 212 208 208 205 204 207 212 197 191 199 207 209 209 208 207 199 193 193 194 180 173 159 163
253 247 244 242 237 234 227 221 219 222 225 225 227 230 228 224 220 218 219 218 212 212 210 207 202 201 200 182 178 196 210 219 220 212 210 204 198 196 196 193 195 185 171
271 265 257 250 247 242 235 232 229 231 231 229 227 230 229 226 223 218 219 218 213 214 214 209 201 200 191 187 191 192 211 208 216 214 209 211 206 196 201 200 198 197 195
353 321 296 279 267 257 252 246 238 235 237 233 230 230 228 227 225 222 222 221 216 213 214 210 204 203 197 196 203 198 203 219 184 188 210 209 208 202 202 199 200 196 197
15 360 339 316 293 277 257 245 238 234 234 235 235 236 235 231 229 226 225 224 220 216 217 213 209 211 207 197 205 226 243 257 189 177 188 207 210 211 204 194 193 187 189
17 7 357 350 342 322 280 254 249 246 248 251 249 247 245 239 232 229 227 226 224 221 221 217 210 212 212 206 195 193 207 228 239 206 183 176 194 209 208 197 188 180 177
17 10 0 354 351 344 323 288 259 257 257 255 252 250 249 245 238 233 228 228 227 224 223 220 214 212 213 214 202 193 187 187 198 205 200 170 173 163 186 195 189 174 170